Weather History for KALW - November, 2013

Change the Weather History Date:

Tuesday, November 19, 2013

  Actual Average Record
Temperature  
Mean Temperature 50 °F -  
Max Temperature 57 °F 48 °F 68 °F (1989)
Min Temperature 43 °F 35 °F 16 °F (2014)
Degree Days  
Heating Degree Days 14    
Moisture  
Dew Point 42 °F    
Average Humidity 67    
Maximum Humidity 86    
Minimum Humidity 49    
Precipitation  
Precipitation 0.38 in - - ()
Sea Level Pressure  
Sea Level Pressure 29.72 in    
Wind  
Wind Speed 14 mph (SSW)    
Max Wind Speed 20 mph    
Max Gust Speed 25 mph    
Visibility 9 miles    
Events Rain    
Averages and records for this station are not official NWS values.
T = Trace of Precipitation, MM = Missing Value Source: NWS Daily Summary

Daily Weather History Graph

Daily Weather History Graph

Search for Another Location

Airport or City:

Trip Planner

Search our weather history database for the weather conditions in past years. The results will help you decide how hot, cold, wet, or windy it might be!

Date:

Astronomy

Nov. 19, 2013 Rise Set
Actual Time 6:59 AM PST 4:16 PM PST
Civil Twilight 6:26 AM PST 4:49 PM PST
Nautical Twilight 5:50 AM PST 5:26 PM PST
Astronomical Twilight 5:14 AM PST 6:02 PM PST
Moon 6:11 PM PST (11/19) 8:44 AM PST (11/19)
Length of Visible Light 10h 22m
Length of Day
9h 17m
Waning Gibbous, 95% of the Moon is Illuminated
Nov 19
Waning Gibbous
Nov 25
Last Quarter
Dec 2
New
Dec 9
First Quarter
Dec 17
Full

Hourly Weather History & Observations

Time (PST) Temp. Windchill Dew Point Humidity Pressure Visibility Wind Dir Wind Speed Gust Speed Precip Events Conditions
12:53 AM 55.9 °F - 39.9 °F 55% 29.70 in 10.0 mi South 17.3 mph - N/A   Overcast
1:53 AM 57.0 °F - 39.9 °F 53% 29.68 in 10.0 mi South 16.1 mph - N/A   Overcast
2:53 AM 55.9 °F - 39.9 °F 55% 29.68 in 10.0 mi South 17.3 mph 25.3 mph 0.00 in   Overcast
3:53 AM 55.9 °F - 39.0 °F 53% 29.68 in 10.0 mi SSW 16.1 mph - N/A   Overcast
4:53 AM 55.9 °F - 39.9 °F 55% 29.68 in 10.0 mi South 13.8 mph - N/A   Overcast
5:53 AM 55.9 °F - 39.9 °F 55% 29.68 in 10.0 mi SSW 11.5 mph - N/A   Overcast
6:53 AM 57.9 °F - 39.0 °F 49% 29.68 in 10.0 mi SSW 15.0 mph 24.2 mph N/A   Overcast
7:53 AM 57.9 °F - 39.0 °F 49% 29.68 in 10.0 mi SSW 19.6 mph 25.3 mph N/A   Overcast
8:53 AM 57.9 °F - 39.9 °F 51% 29.69 in 10.0 mi SSW 13.8 mph - N/A   Overcast
9:53 AM 57.9 °F - 41.0 °F 53% 29.68 in 10.0 mi SSW 17.3 mph 24.2 mph 0.00 in Rain Light Rain
10:53 AM 53.1 °F - 46.9 °F 80% 29.69 in 6.0 mi South 5.8 mph - 0.04 in Rain Light Rain
11:53 AM 54.0 °F - 46.9 °F 77% 29.68 in 6.0 mi SSW 9.2 mph - 0.09 in Rain Light Rain
12:53 PM 53.1 °F - 46.9 °F 80% 29.68 in 8.0 mi South 10.4 mph - 0.08 in Rain Rain
1:53 PM 53.1 °F - 46.9 °F 80% 29.68 in 5.0 mi SW 5.8 mph - 0.05 in Rain Light Rain
2:53 PM 53.1 °F - 48.0 °F 83% 29.69 in 7.0 mi South 9.2 mph - 0.11 in Rain Light Rain
3:53 PM 52.0 °F - 48.0 °F 86% 29.71 in 10.0 mi SSW 8.1 mph - 0.01 in   Overcast
4:53 PM 52.0 °F - 48.0 °F 86% 29.72 in 10.0 mi South 13.8 mph - N/A   Mostly Cloudy
5:53 PM 52.0 °F - 44.1 °F 74% 29.74 in 10.0 mi WSW 15.0 mph - N/A   Overcast
6:53 PM 50.0 °F - 43.0 °F 77% 29.76 in 10.0 mi SW 8.1 mph - N/A   Overcast
7:53 PM 48.9 °F - 41.0 °F 74% 29.78 in 10.0 mi SSW 11.5 mph - N/A   Mostly Cloudy
8:53 PM 48.0 °F - 39.0 °F 71% 29.80 in 10.0 mi SW 13.8 mph - N/A   Overcast
9:53 PM 46.0 °F 39.9 °F 37.0 °F 71% 29.82 in 10.0 mi SW 13.8 mph - N/A   Mostly Cloudy
10:53 PM 44.1 °F 39.5 °F 37.9 °F 79% 29.86 in 10.0 mi WSW 8.1 mph - N/A   Overcast
11:53 PM 43.0 °F 39.5 °F 35.1 °F 74% 29.89 in 10.0 mi SW 5.8 mph - N/A   Mostly Cloudy